Weather History for Kars, Turkey

Change the Weather History Date:

Sunday, February 17, 2013

  Actual Average Record
Temperature  
Mean Temperature 18 °F -  
Max Temperature 29 °F 32 °F - ()
Min Temperature 8 °F 13 °F - ()
Degree Days  
Heating Degree Days 46    
Moisture  
Dew Point 15 °F    
Average Humidity 89    
Maximum Humidity 100    
Minimum Humidity 74    
Precipitation  
Precipitation 0.04 in 0.03 in - ()
Sea Level Pressure  
Sea Level Pressure 29.91 in    
Wind  
Wind Speed 2 mph ()    
Max Wind Speed 9 mph    
Max Gust Speed -    
Visibility 4.5 miles    
Events Snow    
T = Trace of Precipitation, MM = Missing Value Source: Averaged Metar Reports

Daily Weather History Graph

Daily Weather History Graph

Search for Another Location

Airport:

Trip Planner

Search our weather history database for the weather conditions in past years. The results will help you decide how hot, cold, wet, or windy it might be!

Date:

Astronomy

Feb. 17, 2013 Rise Set
Actual Time 5:58 AM EET 4:45 PM EET
Civil Twilight 5:30 AM EET 5:12 PM EET
Nautical Twilight 4:59 AM EET 5:44 PM EET
Astronomical Twilight 4:27 AM EET 6:16 PM EET
Moon 9:34 AM EET (2/17) No Moon Set
Length of Visible Light 11h 42m
Length of Day
10h 46m
Waxing Crescent, 46% of the Moon is Illuminated
Feb 17
Waxing Crescent
Feb 17
First Quarter
Feb 25
Full
Mar 4
Last Quarter
Mar 11
New

Hourly Weather History & Observations

Time (EET) Temp. Windchill Dew Point Humidity Pressure Visibility Wind Dir Wind Speed Gust Speed Precip Events Conditions
12:50 AM 15.8 °F - 14.0 °F 93% 29.92 in 2.5 mi NW 2.3 mph - N/A   Mostly Cloudy
1:50 AM 10.4 °F - 8.6 °F 92% 29.89 in 2.8 mi Variable 2.3 mph - N/A   Mostly Cloudy
2:00 AM 10 °F - 9 °F 92%  in 3 mi West 2.3 mph - -   Mist
2:50 AM 14.0 °F 8.2 °F 12.2 °F 93% 29.89 in 3.1 mi SE 3.5 mph - N/A   Mostly Cloudy
3:50 AM 14.0 °F 6.5 °F 12.2 °F 93% 29.89 in 3.1 mi WNW 4.6 mph - N/A   Mostly Cloudy
4:50 AM 12.2 °F - 10.4 °F 92% 29.89 in 3.7 mi Variable 2.3 mph - N/A   Mostly Cloudy
5:50 AM 12.2 °F - 10.4 °F 92% 29.89 in 3.7 mi Calm Calm - N/A   Mostly Cloudy
6:50 AM 17.6 °F - 15.8 °F 93% 29.89 in 3.1 mi Variable 1.2 mph - N/A   Mostly Cloudy
7:50 AM 8.6 °F - 6.8 °F 92% 29.92 in 3.1 mi Variable 1.2 mph - N/A   Mostly Cloudy
8:00 AM 9 °F - 9 °F 100%  in 4 mi SE 1.2 mph - -   Mist
8:50 AM 19.4 °F - 19.4 °F 100% 29.92 in 3.7 mi Calm Calm - N/A   Mostly Cloudy
9:50 AM 24.8 °F - 24.8 °F 100% 29.92 in 3.7 mi Calm Calm - N/A   Mostly Cloudy
10:50 AM 26.6 °F - 26.6 °F 100% 29.92 in 3.7 mi Calm Calm - N/A   Mostly Cloudy
11:50 AM 28.4 °F 23.3 °F 23.0 °F 80% 29.92 in 6.2 mi East 4.6 mph - N/A   Mostly Cloudy
12:50 PM 28.4 °F 24.6 °F 23.0 °F 80% 29.89 in 6.2 mi ESE 3.5 mph - N/A   Mostly Cloudy
1:50 PM 28.4 °F 24.6 °F 21.2 °F 74% 29.89 in 6.2 mi East 3.5 mph - N/A   Mostly Cloudy
2:50 PM 28.4 °F - 21.2 °F 74% 29.89 in 6.2 mi East 1.2 mph - N/A   Mostly Cloudy
3:50 PM 24.8 °F 17.9 °F 17.6 °F 74% 29.89 in 6.2 mi ENE 5.8 mph - N/A   Mostly Cloudy
4:50 PM 21.2 °F 13.6 °F 15.8 °F 80% 29.89 in 6.2 mi East 5.8 mph - N/A   Mostly Cloudy
5:50 PM 21.2 °F 10.9 °F 15.8 °F 80% 29.92 in 6.2 mi SE 9.2 mph - N/A   Mostly Cloudy
6:50 PM 17.6 °F 6.4 °F 12.2 °F 79% 29.92 in 6.2 mi SE 9.2 mph - N/A   Mostly Cloudy
7:50 PM 15.8 °F 7.2 °F 12.2 °F 86% 29.92 in 6.2 mi West 5.8 mph - N/A   Scattered Clouds
8:00 PM 16 °F - 15 °F 91%  in 6 mi West 5.8 mph - -   Partly Cloudy
8:50 PM 12.2 °F - 10.4 °F 92% 29.92 in 6.2 mi Calm Calm - N/A   Scattered Clouds
9:50 PM 12.2 °F - 10.4 °F 92% 29.92 in 6.2 mi Calm Calm - N/A   Mostly Cloudy
10:50 PM 15.8 °F - 14.0 °F 93% 29.92 in 1.2 mi Calm Calm - N/A Snow Light Snow
11:50 PM 14.0 °F - 12.2 °F 93% 29.92 in 3.1 mi Calm Calm - N/A   Overcast